星链-4604 (STARLINK-4604 )

导读 | 星芒AI

STARLINK-4604 是 SpaceX 星链计划中的一颗低轨通信卫星,属于第四批发射的星链卫星群。该卫星运行在约 550 公里的高度,旨在为全球提供高速互联网服务。作为星链网络的一部分,它通过与其他卫星协同工作,提升网络覆盖与连接稳定性,尤其服务于偏远和网络基础设施薄弱的地区。该卫星采用先进的推进和通信技术,支持高频段数据传输,助力实现 SpaceX 构建全球宽带网络的目标。

基本信息
目录编号:
53618
目录名称:
STARLINK-4604
国际标识:
2022-104AG
轨道中心:
EARTH
卫星名称:
星链-4604
卫星全名:
星链-4604 (STARLINK-4604 )
卫星状态:
已陨落 最后检测时间 2025-04-14
发射日期:
2022-08-28 UTC
国别 :
美国 (US)
星等 :
--
轨道信息
数据来源 国际轨道数据
星历时间: 2025-04-14T04:35:07+0800
轨道信息已过期251天
半长轴: 6537.759km
偏心率: 0.0006454
轨道倾角: 53.203°
近地点辐角 316.817°
升交点赤经 250.095°
平近点角 167.410°
近地点: 155.404km
远地点: 163.844km
周期: 87.681分钟
每日圈数: 16.423262
详细信息
固有亮度:
5
最大亮度:
2.5
卫星平台:
Starlink v1.5
覆盖范围:
全球
运营商:
太空探索技术公司
运营商所在国:
美国
制造商(研发单位):
太空探索技术公司
制造商所在国:
美国
使用方式:
暂无
卫星简介
星链(Starlink)计划是由太空探索技术公司(SpaceX)提出的一个巨型低轨卫星互联网星座项目,计划在2019年至2024年间在太空搭建由约1.2万颗卫星组成的“星链”网络,其中1584颗将部署在地球上空550千米处的近地轨道,并从2020年开始工作。该卫星仍在工作。